Location: Unspecified
(45.6635°N, 122.4424°W)
Time: 11:25:58
(UTC+00:00)

ISS - Visible Passes

Search period start: 23 July 2018 00:00
Search period end: 02 August 2018 00:00
Orbit: 402 x 408 km, 51.6° (Epoch: 23 July)

Date Brightness Start Highest point End Pass type
(mag) Time Alt. Az. Time Alt. Az. Time Alt. Az.
23 Jul -3.3 05:19:12 10° WSW 05:22:27 61° NNW 05:25:43 10° ENE visible
23 Jul -1.7 06:56:28 10° WNW 06:59:22 28° N 07:02:16 10° ENE visible
23 Jul -2.2 08:33:17 10° NW 08:36:02 36° N 08:36:02 36° N visible
24 Jul -3.9 04:27:02 10° WSW 04:30:19 85° SSE 04:33:36 10° ENE visible
24 Jul -1.9 06:04:05 10° WNW 06:07:04 31° N 06:10:04 10° NE visible
24 Jul -2.0 07:41:09 10° NW 07:44:08 31° N 07:44:45 28° NNE visible
25 Jul -2.3 05:11:42 10° W 05:14:48 38° NNW 05:17:55 10° NE visible
25 Jul -1.7 06:48:56 10° WNW 06:51:50 28° N 06:53:54 15° NE visible
25 Jul -1.4 08:25:29 10° WNW 08:26:30 18° NW 08:26:30 18° NW visible
26 Jul -2.9 04:19:21 10° W 04:22:34 52° NNW 04:25:47 10° ENE visible
26 Jul -1.7 05:56:37 10° WNW 05:59:30 27° N 06:02:24 10° ENE visible
26 Jul -2.2 07:33:22 10° NW 07:35:47 35° NNW 07:35:47 35° NNW visible
27 Jul -1.8 05:04:14 10° WNW 05:07:11 29° N 05:10:08 10° NE visible
27 Jul -2.2 06:41:13 10° NW 06:44:14 32° NNE 06:45:08 27° NE visible
27 Jul -0.8 08:17:40 10° WNW 08:17:46 11° WNW 08:17:46 11° WNW visible
28 Jul -2.1 04:11:48 10° W 04:14:51 35° NNW 04:17:55 10° NE visible
28 Jul -1.9 05:48:59 10° WNW 05:51:55 28° N 05:54:32 12° ENE visible
28 Jul -1.9 07:25:29 10° WNW 07:27:10 27° NW 07:27:10 27° NW visible
29 Jul -1.8 04:56:40 10° WNW 04:59:33 27° N 05:02:26 10° ENE visible
29 Jul -3.0 06:33:20 10° NW 06:36:32 46° NNE 06:36:35 46° NNE visible
30 Jul -2.4 05:41:09 10° NW 05:44:14 35° NNE 05:46:03 19° ENE visible
30 Jul -1.4 07:17:37 10° WNW 07:18:40 19° WNW 07:18:40 19° WNW visible
31 Jul -2.1 04:48:55 10° NW 04:51:52 29° N 04:54:49 10° ENE visible
31 Jul -3.3 06:25:23 10° WNW 06:28:09 59° NW 06:28:09 59° NW visible
01 Aug -3.2 05:33:11 10° WNW 05:36:25 52° NNE 05:37:39 31° E visible
01 Aug -1.0 07:09:53 10° W 07:10:17 12° W 07:10:17 12° W visible
